QPF
0.00 0.00 0.06 0.02 0.00 0.00 0.00 0.00 0.00 0.01 0.01 0.01 0.03 0.01 0.00 0.00 0.00 0.00 0.00 0.00 0.00 0.00
0.00 0.00 0.00 0.00 0.00 0.00 0.00 0.00 0.00 0.00 0.01 0.04 0.02 0.01 0.00 0.00 0.00 0.00 0.00 0.00 0.00 0.00
0.00 0.00 0.00 0.00 0.00 0.04 0.06 0.05 0.02 0.07 0.04 0.02 0.01 0.00 0.00 0.00 0.00 0.00 0.00 0.00 0.00 0.00
0.00 0.00 0.01 0.01 0.00 0.03 0.04 0.10 0.10 0.05 0.08 0.05 0.01 0.00 0.01 0.02 0.01 0.00 0.00 0.00 0.01 0.01
0.00 0.00 0.00 0.03 0.01 0.00 0.02 0.04 0.09 0.03 0.05 0.04 0.01 0.00 0.00 0.02 0.02 0.07 0.02 0.01 0.02 0.05
0.00 0.00 0.01 0.00 0.00 0.00 0.01 0.03 0.04 0.03 0.09 0.13 0.03 0.00 0.01 0.04 0.03 0.05 0.04 0.07 0.03 0.05
0.00 0.00 0.00 0.00 0.01 0.01 0.01 0.01 0.02 0.02 0.01 0.04 0.02 0.01 0.00 0.00 0.01 0.01 0.03 0.05 0.04 0.03
0.00 0.00 0.00 0.01 0.01 0.01 0.00 0.00 0.01 0.01 0.00 0.00 0.00 0.00 0.00 0.00 0.00 0.00 0.00 0.00 0.01 0.01
0.00 0.00 0.00 0.00 0.00 0.03 0.00 0.01 0.03 0.03 0.03 0.05 0.04 0.06 0.03 0.02 0.01 0.00 0.00 0.00 0.00 0.00
0.00 0.00 0.00 0.00 0.00 0.00 0.03 0.06 0.09 0.10 0.08 0.07 0.10 0.09 0.05 0.07 0.06 0.03 0.02 0.02 0.01 0.00
0.01 0.00 0.00 0.00 0.00 0.00 0.01 0.02 0.03 0.08 0.13 0.15 0.17 0.10 0.10 0.11 0.09 0.06 0.13 0.09 0.05 0.01
0.01 0.01 0.00 0.00 0.00 0.00 0.00 0.00 0.01 0.01 0.02 0.01 0.01 0.05 0.11 0.14 0.12 0.11 0.06 0.12 0.12 0.08
0.00 0.00 0.00 0.00 0.00 0.00 0.00 0.00 0.00 0.00 0.00 0.01 0.02 0.01 0.08 0.11 0.07 0.10 0.08 0.04 0.08 0.11
0.00 0.00 0.00 0.00 0.00 0.00 0.00 0.00 0.00 0.00 0.00 0.01 0.02 0.02 0.02 0.03 0.02 0.03 0.02 0.02 0.01 0.01
MSLP
1020.82 1020.96 1021.17 1021.47 1021.63 1021.69 1021.74 1021.78 1021.73 1021.91 1022.16 1022.37 1022.65 1022.97 1023.09 1023.10 1023.14 1023.28 1023.73 1023.90 1023.97 1023.82
1020.70 1020.78 1020.92 1021.08 1021.39 1021.54 1021.51 1021.54 1021.67 1021.81 1021.95 1022.40 1022.41 1022.56 1022.77 1023.01 1023.18 1023.36 1023.61 1023.78 1023.87 1023.91
1020.69 1020.72 1020.84 1021.06 1021.19 1021.37 1021.63 1021.47 1021.48 1021.65 1021.86 1022.06 1022.20 1022.42 1022.60 1022.77 1022.90 1023.23 1023.49 1023.71 1023.77 1023.78
1020.46 1020.76 1020.88 1021.05 1021.04 1021.02 1021.15 1021.29 1021.53 1021.60 1021.82 1021.98 1022.16 1022.12 1022.53 1022.66 1022.96 1023.16 1023.40 1023.49 1023.52 1023.55
1020.15 1020.49 1020.77 1020.88 1020.93 1020.69 1020.89 1020.99 1021.46 1021.38 1021.61 1021.71 1021.92 1022.02 1022.26 1022.55 1022.78 1022.99 1023.17 1023.23 1023.39 1023.35
1020.31 1020.41 1020.60 1020.65 1020.63 1020.76 1020.83 1020.81 1020.96 1021.19 1021.30 1021.70 1021.71 1021.85 1022.05 1022.26 1022.48 1022.67 1022.80 1022.91 1022.86 1022.87
1020.19 1020.48 1020.66 1020.66 1020.65 1020.71 1020.80 1020.85 1020.91 1021.15 1021.13 1021.10 1021.29 1021.54 1021.71 1021.97 1022.13 1022.17 1022.29 1022.34 1022.39 1022.41
1020.32 1020.51 1020.83 1020.88 1020.84 1020.74 1020.91 1021.08 1021.06 1021.11 1021.16 1021.05 1021.20 1021.25 1021.36 1021.54 1021.71 1021.79 1021.77 1021.83 1021.90 1021.73
1020.40 1020.55 1021.04 1020.92 1021.18 1021.17 1021.28 1021.25 1021.45 1021.52 1021.39 1021.37 1021.30 1021.01 1021.21 1021.30 1021.47 1021.52 1021.58 1021.51 1021.38 1021.15
1020.38 1021.06 1021.49 1021.15 1021.27 1021.56 1021.58 1021.46 1021.61 1021.88 1021.99 1021.90 1021.85 1021.66 1021.22 1021.22 1021.29 1021.22 1021.25 1021.36 1021.42 1021.26
1021.30 1021.47 1021.78 1021.54 1021.64 1021.75 1021.83 1021.63 1021.72 1022.12 1022.13 1022.02 1022.52 1021.99 1021.47 1021.12 1021.43 1021.61 1021.71 1021.59 1021.45 1021.38
1021.57 1021.58 1021.85 1021.96 1022.03 1021.89 1021.78 1021.86 1021.85 1022.04 1022.17 1022.43 1023.21 1022.91 1022.19 1021.66 1021.76 1022.00 1021.86 1021.78 1021.67 1021.87
1022.34 1022.31 1022.42 1022.51 1022.20 1022.08 1021.97 1021.86 1021.87 1022.33 1022.51 1023.24 1023.42 1024.02 1023.18 1022.63 1022.49 1022.71 1023.02 1022.05 1022.21 1022.42
1022.98 1022.91 1022.84 1022.70 1022.54 1022.60 1022.77 1022.79 1022.91 1023.29 1023.64 1023.74 1024.26 1024.65 1023.71 1023.93 1023.13 1023.39 1023.58 1023.48 1022.83 1022.69
Thickness
5764 5763 5762 5761 5760 5761 5761 5762 5763 5762 5761 5760 5758 5757 5756 5757 5757 5757 5755 5756 5756 5757
5763 5764 5763 5763 5761 5760 5763 5763 5762 5761 5761 5759 5760 5760 5759 5758 5757 5756 5757 5757 5757 5757
5761 5763 5763 5762 5761 5758 5757 5761 5762 5762 5761 5760 5760 5759 5759 5760 5759 5757 5757 5756 5757 5758
5759 5760 5761 5761 5761 5760 5759 5760 5761 5761 5761 5761 5760 5761 5759 5760 5759 5758 5757 5757 5758 5758
5757 5757 5758 5758 5758 5759 5760 5760 5758 5759 5760 5761 5760 5760 5760 5758 5758 5757 5756 5758 5757 5758
5750 5753 5754 5757 5758 5757 5759 5760 5759 5758 5759 5756 5758 5759 5760 5759 5759 5758 5757 5758 5760 5760
5744 5746 5747 5750 5753 5753 5755 5757 5757 5756 5758 5758 5758 5758 5759 5760 5759 5760 5760 5760 5761 5761
5737 5739 5739 5742 5747 5750 5750 5751 5753 5754 5754 5755 5755 5756 5758 5759 5760 5760 5761 5761 5761 5762
5728 5730 5729 5735 5738 5741 5742 5745 5745 5746 5747 5749 5750 5752 5753 5757 5758 5758 5759 5760 5762 5764
5722 5719 5719 5725 5728 5729 5732 5735 5736 5736 5736 5738 5742 5743 5749 5750 5754 5756 5756 5756 5756 5758
5711 5712 5712 5717 5718 5718 5721 5725 5727 5725 5728 5729 5726 5735 5742 5745 5746 5746 5745 5748 5751 5753
5705 5708 5709 5708 5708 5707 5710 5714 5718 5718 5720 5719 5718 5723 5728 5735 5738 5737 5739 5741 5742 5743
5695 5697 5698 5697 5701 5703 5703 5707 5711 5709 5710 5707 5708 5706 5713 5718 5721 5720 5718 5730 5730 5730
5685 5687 5689 5691 5693 5693 5692 5694 5693 5693 5692 5693 5693 5692 5702 5701 5708 5707 5706 5707 5714 5719